Location: São Paulo
(23.5507°S, 46.6334°W)
Time: 12:36:31
(UTC-03:00)

Tiros 1 - All Passes

Search period start: 10 February 2026 00:00
Search period end: 20 February 2026 00:00
Orbit: 619 x 649 km, 48.4° (Epoch: 10 February)

Date Brightness Start Highest point End Pass type
(mag) Time Alt. Az. Time Alt. Az. Time Alt. Az.
10 Feb - 05:31:15 10° S 05:34:25 17° SE 05:37:32 10° ESE daylight
10 Feb - 07:11:54 10° SW 07:16:36 66° NW 07:21:13 10° NE daylight
10 Feb - 21:14:37 10° NNW 21:19:04 46° NE 21:23:36 10° ESE night (unlit)
10 Feb - 22:57:24 10° W 23:01:05 22° SW 23:04:49 10° SSE night (unlit)
11 Feb - 05:51:58 10° SSW 05:56:22 37° SE 06:00:42 10° ENE daylight
11 Feb - 07:34:17 10° WSW 07:38:05 24° NW 07:41:49 10° N daylight
11 Feb - 19:57:14 10° NNE 19:59:12 12° NE 20:01:11 10° E visible
11 Feb - 21:36:01 10° NW 21:40:40 67° SW 21:45:23 10° SE night (unlit)
11 Feb - 23:21:55 10° SW 23:23:14 11° SSW 23:24:33 10° SSW night (unlit)
12 Feb - 04:33:13 10° S 04:35:43 14° SSE 04:38:13 10° ESE visible
12 Feb - 06:13:20 10° SW 06:18:05 88° NW 06:22:46 10° NE daylight
12 Feb - 20:16:24 10° NNW 20:20:35 34° NE 20:24:51 10° ESE visible
12 Feb - 21:58:26 10° W 22:02:27 28° SW 22:06:33 10° SSE night (unlit)
13 Feb - 04:53:37 10° SSW 04:57:46 29° SE 05:01:51 10° E visible
13 Feb - 06:35:24 10° WSW 06:39:37 32° NW 06:43:46 10° NNE daylight
13 Feb - 20:37:27 10° NW 20:42:07 89° SW 20:46:52 10° SE visible
13 Feb - 22:22:09 10° WSW 22:24:30 14° SSW 22:26:53 10° S visible
14 Feb - 03:35:28 10° S 03:37:01 11° SSE 03:38:33 10° SE visible
14 Feb - 05:14:48 10° SW 05:19:33 70° SE 05:24:13 10° NE visible
14 Feb - 06:59:14 10° WNW 07:01:00 12° NW 07:02:45 10° NNW daylight
14 Feb - 19:18:19 10° N 19:22:07 25° NE 19:25:58 10° ESE visible
14 Feb - 20:59:33 10° WNW 21:03:51 35° SW 21:08:12 10° SSE visible
15 Feb - 03:55:19 10° SSW 03:59:08 23° SE 04:02:53 10° E visible
15 Feb - 05:36:37 10° WSW 05:41:07 44° NW 05:45:34 10° NNE daylight
15 Feb - 19:38:59 10° NW 19:43:35 69° NE 19:48:17 10° SE visible
15 Feb - 21:22:47 10° WSW 21:25:48 17° SW 21:28:52 10° S visible
16 Feb - 04:16:19 10° SW 04:20:58 52° SE 04:25:35 10° ENE visible
16 Feb - 05:59:34 10° W 06:02:32 16° NW 06:05:28 10° NNW daylight
16 Feb - 18:20:26 10° N 18:23:39 19° NE 18:26:54 10° E daylight
16 Feb - 20:00:47 10° WNW 20:05:15 46° SW 20:09:48 10° SSE visible
17 Feb - 02:57:06 10° S 03:00:28 19° SE 03:03:47 10° E visible
17 Feb - 04:37:55 10° SW 04:42:36 60° NW 04:47:13 10° NNE visible
17 Feb - 18:40:37 10° NNW 18:45:04 50° NE 18:49:37 10° SE daylight
17 Feb - 20:23:37 10° W 20:27:08 21° SW 20:30:41 10° SSE visible
18 Feb - 03:17:53 10° SSW 03:22:23 40° SE 03:26:50 10° ENE visible
18 Feb - 05:00:24 10° WSW 05:04:04 22° NW 05:07:41 10° N visible
18 Feb - 17:22:53 10° NNE 17:25:11 14° NE 17:27:29 10° E daylight
18 Feb - 19:02:05 10° NW 19:06:40 61° SW 19:11:20 10° SE visible
18 Feb - 20:48:54 10° SW 20:49:17 10° SSW 20:49:41 10° SSW visible
19 Feb - 01:58:59 10° S 02:01:45 15° SSE 02:04:31 10° ESE night (unlit)
19 Feb - 03:39:18 10° SW 03:44:04 81° NW 03:48:46 10° NE visible
19 Feb - 17:42:20 10° NNW 17:46:34 37° NE 17:50:52 10° ESE daylight
19 Feb - 19:24:35 10° W 19:28:28 26° SW 19:32:25 10° SSE visible
